Location: Augirein
(42.9320°N, 0.9181°E)
Time: 09:05:40
(UTC+00:00)

Tiangong - Pass Details

Date: 30 September 2021
Orbit: 382 x 385 km, 41.5° (Epoch: 17 October)

Event Time Altitude Azimuth Distance (km) Brightness Sun altitude
Exits shadow 04:46:44 24° 247° (WSW) 843 2.2 -12.8°
Maximum altitude 04:48:26 62° 173° (S) 434 1.3 -12.5°
Drops below altitude 10° 04:51:33 10° 92° (E) 1,396 5.4 -12.0°
Sets 04:53:37 0° 89° (E) 2,249 7.1 -11.6°
